Date String (YYYY-MM-DD hh:mm:ss) UTC,Instrument flags,Ambient pressure (hPa),Sample flow (lpm),Bypass flow (lpm),Sample temperature (°C),Ambient temperature (°C),ASC tube jacket temperature (°C),LED temperature (°C),Box temperature (°C),Sample RH (%),Span deviation,Mass concentration (μg/m³),Mass concentration (μg/m³),Mass concentration (μg/m³)
DateTimeUTC,F1_M11,P_M11,Q1_M11,Q2_M11,T1_M11,T2_M11,T3_M11,T4_M11,T5_M11,U1_M11,ZSPAN_M11,X0_M11,X2_M11,X1_M11
2022-07-22 14:00:00,,0829.1,5.00,0.00,29.8,28.6,00.0,38.6,31.7,14.7,0000.0,0013.48,0006.91,0005.90
2022-07-22 14:01:00,,0828.7,5.00,0.00,29.9,28.7,00.0,38.6,31.8,14.8,0000.0,0013.55,0006.95,0005.91
2022-07-22 14:02:00,,0828.7,4.99,0.00,29.9,28.8,00.0,38.6,31.9,14.6,0000.0,0013.76,0006.92,0005.92
2022-07-22 14:03:00,,0828.7,5.01,0.00,29.9,28.8,00.0,38.6,31.9,14.7,0000.0,0014.23,0006.88,0005.94
2022-07-22 14:04:00,,0828.7,4.99,0.00,30.0,28.7,00.0,38.6,31.9,14.1,0000.0,0014.23,0006.88,0005.94
2022-07-22 14:05:00,,0828.7,5.02,0.00,29.9,28.0,00.0,38.6,31.8,14.3,0000.0,0013.66,0006.90,0005.95
2022-07-22 14:06:00,,0828.7,4.99,0.00,29.9,27.6,00.0,38.5,31.7,14.3,0000.0,0013.18,0006.89,0005.96
2022-07-22 14:07:00,,0828.7,4.99,0.00,29.9,27.7,00.0,38.5,31.7,14.3,0000.0,0013.31,0006.94,0005.97
2022-07-22 14:08:00,,0828.7,5.01,0.00,29.8,27.7,00.0,38.5,31.6,14.8,0000.0,0013.65,0006.95,0005.99
2022-07-22 14:09:00,,0828.6,5.00,0.00,29.8,27.9,00.0,38.5,31.6,15.0,0000.0,0013.82,0006.98,0006.00
2022-07-22 14:10:00,,0829.1,5.00,0.00,29.8,28.0,00.0,38.5,31.6,14.7,0000.0,0013.84,0006.99,0005.99
2022-07-22 14:11:00,,0829.2,5.00,0.00,29.8,28.1,00.0,38.5,31.6,14.9,0000.0,0013.86,0007.01,0006.00
2022-07-22 14:12:00,,0829.1,4.99,0.00,29.8,28.3,00.0,38.5,31.7,15.1,0000.0,0013.59,0006.95,0006.01
2022-07-22 14:13:00,,0829.0,5.01,0.00,29.8,28.4,00.0,38.6,31.7,15.1,0000.0,0013.26,0006.95,0006.02
2022-07-22 14:14:00,,0829.1,5.01,0.00,29.8,28.5,00.0,38.6,31.7,15.3,0000.0,0012.37,0006.94,0006.02
2022-07-22 14:15:00,,0829.0,5.00,0.00,29.8,28.6,00.0,38.6,31.7,14.8,0000.0,0012.20,0006.92,0006.04
2022-07-22 14:16:00,,0829.1,4.99,0.00,29.9,28.7,00.0,38.6,31.8,15.5,0000.0,0012.40,0006.92,0006.05
2022-07-22 14:17:00,,0829.2,5.00,0.00,29.9,28.8,00.0,38.6,31.9,14.7,0000.0,0013.57,0006.93,0006.04
2022-07-22 14:18:00,,0829.0,5.01,0.00,29.9,28.8,00.0,38.6,31.9,15.0,0000.0,0014.05,0006.96,0006.05
2022-07-22 14:19:00,,0828.7,5.00,0.00,29.9,28.3,00.0,38.6,31.9,15.1,0000.0,0013.81,0006.95,0006.04
2022-07-22 14:20:00,,0828.7,4.99,0.00,29.9,27.7,00.0,38.5,31.7,14.8,0000.0,0013.03,0006.94,0006.03
2022-07-22 14:21:00,,0828.6,5.01,0.00,29.9,27.6,00.0,38.5,31.7,15.3,0000.0,0012.71,0006.86,0006.03
2022-07-22 14:22:00,,0828.8,5.00,0.00,29.8,27.7,00.0,38.5,31.6,16.5,0000.0,0012.70,0006.85,0006.02
2022-07-22 14:23:00,,0828.9,4.99,0.00,29.8,27.8,00.0,38.5,31.6,17.0,0000.0,0013.11,0006.83,0006.01
2022-07-22 14:24:00,,0828.8,5.00,0.00,29.8,28.0,00.0,38.5,31.6,16.7,0000.0,0013.66,0006.81,0006.01
2022-07-22 14:25:00,,0829.2,5.00,0.00,29.8,28.1,00.0,38.5,31.6,16.6,0000.0,0013.96,0006.81,0006.00
2022-07-22 14:26:00,,0829.1,5.00,0.00,29.8,28.2,00.0,38.5,31.7,16.8,0000.0,0014.39,0006.83,0005.99
2022-07-22 14:27:00,,0829.2,4.99,0.00,29.8,28.4,00.0,38.6,31.7,17.1,0000.0,0016.55,0006.89,0005.99
2022-07-22 14:28:00,,0828.8,5.00,0.00,29.8,28.5,00.0,38.6,31.7,16.9,0000.0,0016.26,0006.93,0005.99
2022-07-22 14:29:00,,0828.9,5.00,0.00,29.8,28.6,00.0,38.6,31.8,17.5,0000.0,0016.11,0006.93,0005.99
2022-07-22 14:30:00,,0829.0,4.99,0.00,29.9,28.7,00.0,38.6,31.8,17.6,0000.0,0016.51,0006.94,0005.98
2022-07-22 14:31:00,,0829.1,5.01,0.00,29.9,28.7,00.0,38.6,31.9,17.1,0000.0,0016.45,0006.96,0006.00
2022-07-22 14:32:00,,0829.0,4.99,0.00,29.9,28.0,00.0,38.5,31.8,17.1,0000.0,0016.76,0007.07,0006.02
2022-07-22 14:33:00,,0829.0,5.01,0.00,29.9,27.6,00.0,38.5,31.7,17.3,0000.0,0016.80,0007.10,0006.03
2022-07-22 14:34:00,,0828.8,4.99,0.00,29.8,27.6,00.0,38.5,31.6,17.9,0000.0,0017.07,0007.11,0006.03
2022-07-22 14:35:00,,0828.6,5.00,0.00,29.8,27.7,00.0,38.5,31.6,17.9,0000.0,0016.73,0007.12,0006.05
2022-07-22 14:36:00,,0828.7,5.01,0.00,29.8,27.8,00.0,38.5,31.6,18.3,0000.0,0016.57,0007.13,0006.07
2022-07-22 14:37:00,,0828.7,5.00,0.00,29.8,28.0,00.0,38.5,31.6,19.1,0000.0,0017.36,0007.21,0006.12
2022-07-22 14:38:00,,0828.7,5.00,0.00,29.8,28.1,00.0,38.5,31.6,20.2,0000.0,0015.60,0007.18,0006.14
2022-07-22 14:39:00,,0829.0,5.01,0.00,29.8,28.2,00.0,38.5,31.7,22.0,0000.0,0015.03,0007.15,0006.16
2022-07-22 14:40:00,,0829.3,5.00,0.00,29.8,28.4,00.0,38.5,31.7,22.9,0000.5,0015.01,0007.14,0006.19
2022-07-22 14:41:00,,0829.3,5.01,0.00,29.8,28.5,00.0,38.5,31.8,21.7,0001.4,0014.49,0007.15,0006.21
2022-07-22 14:42:00,,0829.3,5.00,0.00,29.8,28.6,00.0,38.6,31.7,19.3,0001.0,0014.33,0007.15,0006.24
2022-07-22 14:43:00,,0829.2,4.99,0.00,29.9,28.6,00.0,38.6,31.8,16.3,0000.8,0014.06,0007.09,0006.26
2022-07-22 14:44:00,,0828.9,5.01,0.00,29.9,28.2,00.0,38.5,31.8,16.4,0001.0,0014.00,0007.09,0006.29
2022-07-22 14:45:00,,0829.3,5.00,0.00,29.8,27.6,00.0,38.5,31.7,17.2,0000.0,0013.78,0007.15,0006.32
2022-07-22 14:46:00,,0829.3,4.99,0.00,29.8,27.5,00.0,38.4,31.6,18.4,0000.0,0013.77,0007.24,0006.34
2022-07-22 14:47:00,,0829.2,5.01,0.00,29.8,27.6,00.0,38.5,31.5,18.9,0000.2,0013.78,0007.23,0006.35
2022-07-22 14:48:00,,0829.1,5.00,0.00,29.7,27.7,00.0,38.5,31.5,19.4,0000.2,0013.22,0007.25,0006.34
2022-07-22 14:49:00,,0828.8,4.99,0.00,29.7,27.9,00.0,38.5,31.5,19.3,0000.2,0012.86,0007.25,0006.35
2022-07-22 14:50:00,,0828.8,5.00,0.00,29.7,28.0,00.0,38.5,31.6,19.7,0000.0,0012.29,0007.28,0006.37
2022-07-22 14:51:00,,0828.8,5.00,0.00,29.7,28.2,00.0,38.5,31.6,20.0,0000.0,0011.99,0007.32,0006.38
2022-07-22 14:52:00,,0829.0,5.00,0.00,29.8,28.3,00.0,38.5,31.7,20.6,0000.0,0012.03,0007.32,0006.38
2022-07-22 14:53:00,,0828.9,5.00,0.00,29.8,28.5,00.0,38.5,31.7,20.7,0000.0,0012.41,0007.37,0006.37
2022-07-22 14:54:00,,0829.0,4.99,0.00,29.8,28.6,00.0,38.5,31.7,20.8,0000.0,0012.88,0007.42,0006.39
2022-07-22 14:55:00,,0829.0,5.01,0.00,29.8,28.7,00.0,38.5,31.8,20.6,0000.0,0013.01,0007.38,0006.39
2022-07-22 14:56:00,,0829.1,4.99,0.00,29.8,28.3,00.0,38.5,31.8,20.1,0000.0,0013.57,0007.37,0006.40
2022-07-22 14:57:00,,0829.2,5.01,0.00,29.8,27.6,00.0,38.4,31.7,19.0,0000.0,0014.05,0007.31,0006.39
2022-07-22 14:58:00,,0829.0,5.00,0.00,29.8,27.4,00.0,38.4,31.6,19.3,0000.0,0013.88,0007.33,0006.40
2022-07-22 14:59:00,,0829.0,5.00,0.00,29.7,27.5,00.0,38.4,31.5,19.3,0000.0,0013.62,0007.31,0006.41
